User: anonymous   Login
Location: Newark
(49.4900°N, 20.6656°E)
Time: 02:40:22
(UTC+00:00)
Language:

STARLINK-1764 - Orbit

View from above orbital plane
View from above orbital plane
View from above satellite
View from above satellite

Ground track
Ground track

The orbit data is extracted from the following two-line orbital elements,

1 46343C 20062V   20332.52813249 -.01142570  00000-0 -36218-1 0  3328
2 46343  53.0019  13.5662 0001298  58.2653  59.4390 15.33304180    11
Epoch (UTC): 27 November 2020 12:40:30
Eccentricity: 0.0001298
inclination: 53.0019°
perigee height: 465 km
apogee height: 467 km
right ascension of ascending node: 13.5662°
argument of perigee: 58.2653°
revolutions per day: 15.33304180
mean anomaly at epoch: 59.4390°
orbit number at epoch: 1

The dashed part of the orbit path shows where the satellite is in the earth's shadow,  

DLR